SJY116 WASS-WAEE

Flight info

Callsign SJY116
Flight time 0h 45m
Altitude 20000
Route FIMBA
Aircraft B738/M-SDE2E3FGHIRWXY/LB1

Departure

Time 2026-04-16 06:55
Airport Domine Eduard Osok Airport (WASS)

Arrival

Time 2026-04-16 07:40
Airport Sultan Babullah Airport (WAEE)
Time Latitude Longitude Altitude Speed Heading
2026-04-16 06:46 -0.89181 131.29149 16 ft 0 kts
2026-04-16 06:48 -0.89194 131.29147 16 ft 2 kts
2026-04-16 06:48 -0.89209 131.29143 16 ft 2 kts 31°
2026-04-16 06:48 -0.89220 131.29134 16 ft 2 kts 51°
2026-04-16 06:49 -0.89228 131.29121 16 ft 2 kts 72°
2026-04-16 06:49 -0.89230 131.29108 16 ft 0 kts 90°
2026-04-16 06:49 -0.89230 131.29102 16 ft 1 kts 94°
2026-04-16 06:49 -0.89230 131.29100 16 ft 0 kts 94°
2026-04-16 06:51 -0.89231 131.29131 16 ft 7 kts 93°
2026-04-16 06:51 -0.89270 131.29158 16 ft 10 kts 184°
2026-04-16 06:52 -0.89371 131.29150 16 ft 15 kts 184°
2026-04-16 06:52 -0.89435 131.29205 16 ft 16 kts 93°
2026-04-16 06:52 -0.89444 131.29352 16 ft 25 kts 94°
2026-04-16 06:52 -0.89456 131.29540 16 ft 25 kts 94°
2026-04-16 06:53 -0.89465 131.29683 16 ft 16 kts 93°
2026-04-16 06:53 -0.89472 131.29788 16 ft 14 kts 93°
2026-04-16 06:53 -0.89478 131.29884 17 ft 14 kts 94°
2026-04-16 06:53 -0.89458 131.29984 17 ft 12 kts 92°
2026-04-16 06:54 -0.89485 131.29990 18 ft 3 kts 271°
2026-04-16 06:54 -0.89482 131.29938 17 ft 29 kts 272°
2026-04-16 06:54 -0.89452 131.29489 16 ft 98 kts 273°
2026-04-16 06:54 -0.89394 131.28604 16 ft 155 kts 274°
2026-04-16 06:55 -0.89318 131.27437 302 ft 177 kts 271°
2026-04-16 06:55 -0.89260 131.26196 993 ft 178 kts 271°
2026-04-16 06:55 -0.89113 131.24980 1669 ft 183 kts 284°
2026-04-16 06:55 -0.88614 131.23734 1990 ft 205 kts 293°
2026-04-16 06:56 -0.87997 131.22350 2244 ft 232 kts 290°
2026-04-16 06:56 -0.87392 131.20804 2802 ft 247 kts 288°
2026-04-16 06:56 -0.86789 131.19148 3434 ft 259 kts 288°
2026-04-16 06:56 -0.86187 131.17468 4262 ft 262 kts 288°
2026-04-16 06:57 -0.85570 131.15744 5111 ft 265 kts 287°
2026-04-16 06:57 -0.84950 131.14014 5956 ft 267 kts 287°
2026-04-16 06:57 -0.84328 131.12282 6768 ft 269 kts 287°
2026-04-16 06:57 -0.83695 131.10516 7578 ft 271 kts 287°
2026-04-16 06:58 -0.83067 131.08765 8352 ft 273 kts 287°
2026-04-16 06:58 -0.82425 131.06978 9119 ft 275 kts 287°
2026-04-16 06:58 -0.81784 131.05190 9872 ft 276 kts 287°
2026-04-16 06:58 -0.81134 131.03378 10549 ft 281 kts 287°
2026-04-16 06:59 -0.80444 131.01447 10672 ft 307 kts 287°
2026-04-16 06:59 -0.79712 130.99399 11132 ft 319 kts 287°
2026-04-16 06:59 -0.78955 130.97293 11797 ft 325 kts 287°
2026-04-16 06:59 -0.78194 130.95177 12550 ft 328 kts 287°
2026-04-16 07:00 -0.77417 130.93015 13231 ft 332 kts 287°
2026-04-16 07:00 -0.76640 130.90851 13889 ft 337 kts 288°
2026-04-16 07:00 -0.75844 130.88632 14534 ft 342 kts 288°
2026-04-16 07:01 -0.74225 130.84122 15784 ft 351 kts 288°
2026-04-16 07:01 -0.73393 130.81804 16362 ft 356 kts 288°
2026-04-16 07:01 -0.72559 130.79480 16961 ft 360 kts 288°
2026-04-16 07:01 -0.71710 130.77115 17530 ft 365 kts 288°
2026-04-16 07:02 -0.70852 130.74724 18113 ft 369 kts 288°
2026-04-16 07:02 -0.69983 130.72305 18725 ft 371 kts 288°
2026-04-16 07:02 -0.69112 130.69879 19328 ft 373 kts 288°
2026-04-16 07:02 -0.68227 130.67413 19876 ft 376 kts 288°
2026-04-16 07:03 -0.67343 130.64947 19998 ft 385 kts 288°
2026-04-16 07:03 -0.66433 130.62415 19995 ft 382 kts 288°
2026-04-16 07:03 -0.65543 130.59935 20001 ft 379 kts 288°
2026-04-16 07:03 -0.64660 130.57478 20001 ft 380 kts 288°
2026-04-16 07:04 -0.63761 130.54973 20000 ft 381 kts 288°
2026-04-16 07:04 -0.62865 130.52478 20000 ft 381 kts 288°
2026-04-16 07:04 -0.61972 130.49992 20000 ft 381 kts 288°
2026-04-16 07:04 -0.61088 130.47530 20000 ft 380 kts 288°
2026-04-16 07:05 -0.60197 130.45047 20000 ft 380 kts 288°
2026-04-16 07:05 -0.59295 130.42534 20000 ft 380 kts 288°
2026-04-16 07:05 -0.58403 130.40048 20000 ft 380 kts 288°
2026-04-16 07:05 -0.57519 130.37589 20000 ft 380 kts 288°
2026-04-16 07:06 -0.56623 130.35092 20000 ft 380 kts 288°
2026-04-16 07:06 -0.55730 130.32603 19999 ft 380 kts 288°
2026-04-16 07:06 -0.54844 130.30136 19999 ft 380 kts 288°
2026-04-16 07:06 -0.53950 130.27647 20000 ft 379 kts 288°
2026-04-16 07:07 -0.53062 130.25174 20000 ft 380 kts 288°
2026-04-16 07:07 -0.52170 130.22691 20000 ft 380 kts 288°
2026-04-16 07:07 -0.51267 130.20172 20013 ft 391 kts 288°
2026-04-16 07:07 -0.50340 130.17589 20001 ft 405 kts 288°
2026-04-16 07:08 -0.49375 130.14899 19988 ft 408 kts 288°
2026-04-16 07:08 -0.48416 130.12228 20010 ft 418 kts 288°
2026-04-16 07:08 -0.47415 130.09439 20000 ft 431 kts 288°
2026-04-16 07:08 -0.46398 130.06607 19996 ft 438 kts 288°
2026-04-16 07:09 -0.45359 130.03714 19997 ft 440 kts 288°
2026-04-16 07:09 -0.44325 130.00836 19998 ft 439 kts 288°
2026-04-16 07:09 -0.43306 129.98001 19999 ft 439 kts 288°
2026-04-16 07:09 -0.42266 129.95105 19999 ft 439 kts 288°
2026-04-16 07:10 -0.41237 129.92241 19999 ft 439 kts 288°
2026-04-16 07:10 -0.40212 129.89386 20000 ft 439 kts 288°
2026-04-16 07:10 -0.39184 129.86525 20000 ft 439 kts 288°
2026-04-16 07:10 -0.38158 129.83670 19999 ft 439 kts 288°
2026-04-16 07:11 -0.37118 129.80772 20000 ft 439 kts 288°
2026-04-16 07:11 -0.36091 129.77913 20000 ft 439 kts 288°
2026-04-16 07:11 -0.35073 129.75079 19999 ft 439 kts 288°
2026-04-16 07:11 -0.34042 129.72208 20000 ft 439 kts 288°
2026-04-16 07:12 -0.33014 129.69345 20000 ft 439 kts 288°
2026-04-16 07:12 -0.31984 129.66478 20000 ft 439 kts 288°
2026-04-16 07:12 -0.30945 129.63585 19999 ft 439 kts 288°
2026-04-16 07:12 -0.29915 129.60718 20000 ft 439 kts 288°
2026-04-16 07:13 -0.28890 129.57864 20000 ft 439 kts 288°
2026-04-16 07:13 -0.27862 129.55003 20000 ft 439 kts 288°
2026-04-16 07:13 -0.26830 129.52129 19999 ft 439 kts 288°
2026-04-16 07:13 -0.25803 129.49271 20000 ft 438 kts 289°
2026-04-16 07:14 -0.24776 129.46410 20000 ft 439 kts 289°
2026-04-16 07:14 -0.23748 129.43547 20000 ft 439 kts 289°
2026-04-16 07:14 -0.22727 129.40706 19999 ft 439 kts 289°
2026-04-16 07:14 -0.21692 129.37823 20000 ft 439 kts 289°
2026-04-16 07:15 -0.20667 129.34970 19999 ft 439 kts 289°
2026-04-16 07:15 -0.19620 129.32056 20000 ft 439 kts 289°
2026-04-16 07:15 -0.18597 129.29208 19999 ft 439 kts 289°
2026-04-16 07:15 -0.17566 129.26337 19999 ft 438 kts 289°
2026-04-16 07:16 -0.16542 129.23486 19999 ft 438 kts 289°
2026-04-16 07:16 -0.15508 129.20609 20000 ft 438 kts 289°
2026-04-16 07:16 -0.14478 129.17741 20000 ft 439 kts 289°
2026-04-16 07:16 -0.13414 129.14874 19999 ft 439 kts 290°
2026-04-16 07:17 -0.12288 129.12065 20000 ft 439 kts 291°
2026-04-16 07:17 -0.11135 129.09224 20000 ft 439 kts 291°
2026-04-16 07:17 -0.09991 129.06403 20000 ft 439 kts 291°
2026-04-16 07:17 -0.08857 129.03601 19999 ft 439 kts 291°
2026-04-16 07:18 -0.07708 129.00760 20000 ft 438 kts 291°
2026-04-16 07:18 -0.06569 128.97939 20000 ft 438 kts 291°
2026-04-16 07:18 -0.05444 128.95149 20000 ft 438 kts 291°
2026-04-16 07:18 -0.04301 128.92314 20000 ft 438 kts 291°
2026-04-16 07:19 -0.03171 128.89511 19999 ft 438 kts 291°
2026-04-16 07:19 -0.02023 128.86662 20000 ft 438 kts 291°
2026-04-16 07:19 -0.00886 128.83836 20000 ft 438 kts 291°
2026-04-16 07:19 0.00237 128.81047 19999 ft 438 kts 291°
2026-04-16 07:20 0.01375 128.78221 19999 ft 436 kts 291°
2026-04-16 07:20 0.02502 128.75424 20000 ft 436 kts 291°
2026-04-16 07:20 0.03637 128.72604 20000 ft 436 kts 291°
2026-04-16 07:20 0.04759 128.69815 20000 ft 436 kts 291°
2026-04-16 07:21 0.05897 128.66988 19999 ft 436 kts 291°
2026-04-16 07:21 0.07021 128.64195 20000 ft 436 kts 291°
2026-04-16 07:21 0.08161 128.61362 20000 ft 436 kts 291°
2026-04-16 07:21 0.09281 128.58578 20000 ft 436 kts 291°
2026-04-16 07:22 0.10407 128.55782 19999 ft 436 kts 291°
2026-04-16 07:22 0.11546 128.52951 20000 ft 436 kts 291°
2026-04-16 07:22 0.12675 128.50146 20000 ft 436 kts 291°
2026-04-16 07:22 0.13804 128.47339 20000 ft 436 kts 291°
2026-04-16 07:23 0.14931 128.44540 20000 ft 436 kts 291°
2026-04-16 07:23 0.16053 128.41751 19999 ft 436 kts 291°
2026-04-16 07:23 0.17181 128.38948 20000 ft 436 kts 291°
2026-04-16 07:23 0.18310 128.36142 20000 ft 436 kts 291°
2026-04-16 07:24 0.19443 128.33328 20000 ft 436 kts 291°
2026-04-16 07:24 0.20572 128.30521 19999 ft 435 kts 291°
2026-04-16 07:24 0.21695 128.27731 19999 ft 435 kts 291°
2026-04-16 07:24 0.22824 128.24925 20000 ft 435 kts 291°
2026-04-16 07:25 0.23955 128.22116 19933 ft 425 kts 291°
2026-04-16 07:25 0.25020 128.19473 19784 ft 401 kts 291°
2026-04-16 07:25 0.26032 128.16960 19695 ft 377 kts 291°
2026-04-16 07:25 0.26982 128.14603 19590 ft 356 kts 291°
2026-04-16 07:26 0.27896 128.12334 19086 ft 349 kts 291°
2026-04-16 07:26 0.28783 128.10126 18452 ft 345 kts 291°
2026-04-16 07:26 0.29681 128.07892 17780 ft 343 kts 291°
2026-04-16 07:26 0.30551 128.05730 17184 ft 339 kts 290°
2026-04-16 07:27 0.31428 128.03549 16567 ft 335 kts 290°
2026-04-16 07:27 0.32294 128.01398 15963 ft 332 kts 290°
2026-04-16 07:27 0.33143 127.99288 15360 ft 328 kts 290°
2026-04-16 07:27 0.33990 127.97183 14766 ft 324 kts 290°
2026-04-16 07:28 0.34821 127.95119 14162 ft 320 kts 290°
2026-04-16 07:28 0.35641 127.93080 13583 ft 316 kts 290°
2026-04-16 07:28 0.36459 127.91048 12982 ft 313 kts 290°
2026-04-16 07:28 0.37262 127.89053 12406 ft 309 kts 290°
2026-04-16 07:29 0.38058 127.87073 11818 ft 306 kts 290°
2026-04-16 07:29 0.38846 127.85115 11190 ft 304 kts 290°
2026-04-16 07:29 0.39629 127.83167 10561 ft 303 kts 290°
2026-04-16 07:29 0.40406 127.81235 9953 ft 301 kts 290°
2026-04-16 07:30 0.41188 127.79291 9322 ft 299 kts 290°
2026-04-16 07:30 0.41952 127.77393 8724 ft 297 kts 290°
2026-04-16 07:30 0.42719 127.75493 8133 ft 295 kts 291°
2026-04-16 07:30 0.43725 127.73708 7633 ft 291 kts 307°
2026-04-16 07:31 0.45028 127.72252 7381 ft 278 kts 312°
2026-04-16 07:31 0.46371 127.70899 7115 ft 266 kts 313°
2026-04-16 07:31 0.47665 127.69628 6865 ft 260 kts 313°
2026-04-16 07:31 0.48944 127.68371 6619 ft 259 kts 313°
2026-04-16 07:32 0.50226 127.67108 6371 ft 259 kts 313°
2026-04-16 07:32 0.51516 127.65836 6122 ft 258 kts 313°
2026-04-16 07:32 0.52782 127.64586 6054 ft 254 kts 313°
2026-04-16 07:32 0.54034 127.63348 6065 ft 258 kts 313°
2026-04-16 07:33 0.55325 127.62073 6048 ft 258 kts 313°
2026-04-16 07:33 0.56585 127.60830 6053 ft 256 kts 313°
2026-04-16 07:33 0.57834 127.59597 6043 ft 249 kts 313°
2026-04-16 07:33 0.59049 127.58398 6051 ft 241 kts 313°
2026-04-16 07:34 0.60221 127.57259 6028 ft 228 kts 314°
2026-04-16 07:34 0.61326 127.56199 5976 ft 211 kts 314°
2026-04-16 07:34 0.62387 127.55182 5834 ft 216 kts 314°
2026-04-16 07:34 0.63473 127.54140 5532 ft 214 kts 314°
2026-04-16 07:35 0.64543 127.53145 5242 ft 208 kts 320°
2026-04-16 07:35 0.65685 127.52243 4760 ft 208 kts 318°
2026-04-16 07:35 0.66768 127.51341 4435 ft 201 kts 318°
2026-04-16 07:35 0.67828 127.50465 4150 ft 194 kts 319°
2026-04-16 07:36 0.68867 127.49622 3920 ft 191 kts 319°
2026-04-16 07:36 0.69881 127.48804 3568 ft 185 kts 319°
2026-04-16 07:36 0.70877 127.48003 3467 ft 185 kts 319°
2026-04-16 07:36 0.71878 127.47198 3229 ft 184 kts 319°
2026-04-16 07:37 0.72873 127.46399 2819 ft 180 kts 319°
2026-04-16 07:37 0.73816 127.45641 2589 ft 171 kts 319°
2026-04-16 07:37 0.74743 127.44894 2384 ft 172 kts 319°
2026-04-16 07:37 0.75676 127.44142 2042 ft 174 kts 319°
2026-04-16 07:38 0.76607 127.43394 1794 ft 167 kts 319°
2026-04-16 07:38 0.77499 127.42677 1539 ft 164 kts 319°
2026-04-16 07:38 0.78361 127.41984 1239 ft 155 kts 320°
2026-04-16 07:38 0.79178 127.41327 1215 ft 151 kts 320°
2026-04-16 07:39 0.80027 127.40642 849 ft 157 kts 320°
2026-04-16 07:39 0.80834 127.39979 491 ft 149 kts 319°
2026-04-16 07:39 0.81625 127.39342 300 ft 147 kts 320°
2026-04-16 07:39 0.82438 127.38702 90 ft 147 kts 320°
2026-04-16 07:40 0.83150 127.38128 57 ft 99 kts 322°
2026-04-16 07:40 0.83516 127.37836 57 ft 43 kts 321°
2026-04-16 07:40 0.83646 127.37717 57 ft 10 kts 302°
2026-04-16 07:40 0.83664 127.37708 57 ft 0 kts 56°
2026-04-16 07:41 0.83660 127.37717 57 ft 3 kts 133°
2026-04-16 07:41 0.83610 127.37762 57 ft 16 kts 141°
2026-04-16 07:41 0.83501 127.37847 57 ft 16 kts 141°
2026-04-16 07:41 0.83455 127.37869 57 ft 4 kts 200°
2026-04-16 07:42 0.83429 127.37847 57 ft 5 kts 228°
2026-04-16 07:42 0.83405 127.37818 57 ft 4 kts 231°
2026-04-16 07:42 0.83387 127.37791 57 ft 3 kts 271°
2026-04-16 07:42 0.83393 127.37777 57 ft 1 kts 281°
2026-04-16 07:43 0.83387 127.37767 57 ft 0 kts 226°
2026-04-16 07:43 0.83379 127.37757 57 ft 1 kts 230°
2026-04-16 07:43 0.83372 127.37749 57 ft 1 kts 231°